CW7693 Weather Reports


time (UTC)temp
F
wind
direction
speed
knots
gust
knots
rain 1hr
in
rain 24hr
in
rain mn
in
humidity
%
barometer
mb
20260831200304 67 255 4.3 7.8 0.00 0.02 0.02 56 1021.7
20260831195306 67 273 5.2 8.7 0.00 0.02 0.02 56 1021.5
20260831194807 67 261 4.3 7.0 0.00 0.02 0.02 58 1021.5
20260831194305 67 263 4.3 10.4 0.00 0.02 0.02 59 1021.5
20260831193303 67 269 5.2 10.4 0.00 0.02 0.02 61 1021.3
20260831192305 66 209 2.6 7.8 0.00 0.02 0.02 66 1021.1
20260831191804 66 338 5.2 7.8 0.00 0.02 0.02 67 1020.9
20260831191304 66 0 0.9 7.0 0.00 0.02 0.02 70 1020.8
20260831190803 65 0 4.3 7.0 0.00 0.02 0.02 73 1020.8
20260831185803 64 0 0.9 7.0 0.00 0.02 0.02 78 1020.8
20260831185306 64 0 0.9 2.6 0.00 0.02 0.02 80 1020.8
20260831184804 64 0 1.7 6.1 0.00 0.02 0.02 80 1020.5
20260831183303 65 0 1.7 5.2 0.00 0.02 0.02 77 1020.0
20260831182305 65 0 0.0 0.0 0.00 0.02 0.02 75 1019.7
20260831181803 66 0 0.0 2.6 0.00 0.02 0.02 75 1019.5
20260831181307 66 0 0.0 2.6 0.00 0.02 0.02 74 1019.6
20260831180803 66 0 0.0 0.0 0.00 0.02 0.02 74 1019.5
20260831180304 66 0 0.0 0.0 0.00 0.02 0.02 73 1019.3
20260831175803 66 0 0.0 2.6 0.00 0.02 0.02 73 1019.3
20260831174804 67 0 1.7 2.6 0.00 0.02 0.02 72 1019.3
20260831172306 67 140 0.0 2.6 0.00 0.02 0.02 72 1019.0
20260831171803 67 0 0.0 2.6 0.00 0.02 0.02 72 1019.0
20260831170803 67 0 1.7 2.6 0.00 0.02 0.02 72 1018.9
20260831165804 67 0 1.7 6.1 0.00 0.02 0.02 72 1018.9
20260831164303 67 0 4.3 7.0 0.00 0.02 0.02 72 1018.7
20260831163803 67 0 1.7 5.2 0.00 0.02 0.02 72 1018.7
20260831163303 67 0 1.7 5.2 0.00 0.02 0.02 72 1018.8
20260831162803 68 0 2.6 5.2 0.00 0.02 0.02 71 1018.8
20260831162306 68 0 1.7 6.1 0.00 0.02 0.02 69 1018.8
20260831160803 68 0 4.3 10.4 0.00 0.02 0.02 67 1018.9
20260831154804 69 0 4.3 7.0 0.00 0.02 0.02 66 1018.8
20260831154303 69 0 2.6 7.0 0.00 0.02 0.02 67 1018.8
20260831153304 69 162 4.3 10.4 0.00 0.02 0.02 67 1018.7
20260831152804 69 192 2.6 8.7 0.00 0.02 0.02 66 1018.8
20260831152306 69 19 4.3 8.7 0.00 0.02 0.02 66 1018.8
20260831151303 68 0 2.6 10.4 0.00 0.02 0.02 67 1018.7
20260831150804 68 0 3.5 10.4 0.00 0.02 0.02 68 1018.8
20260831150304 68 0 3.5 7.0 0.00 0.02 0.02 69 1018.8
20260831145804 68 0 2.6 7.0 0.00 0.02 0.02 69 1019.1
20260831145306 67 0 4.3 6.1 0.00 0.02 0.02 69 1019.1
20260831144804 67 0 2.6 6.1 0.00 0.02 0.02 70 1019.1
20260831144304 67 0 4.3 7.0 0.00 0.02 0.02 71 1019.2
20260831143804 67 0 4.3 7.0 0.00 0.02 0.02 71 1019.1
20260831143303 67 0 2.6 6.1 0.00 0.02 0.02 70 1019.2
20260831142803 67 0 4.3 6.1 0.00 0.02 0.02 70 1019.2
20260831142306 68 0 2.6 6.1 0.00 0.02 0.02 68 1019.3
20260831141304 68 0 1.7 4.3 0.00 0.02 0.02 67 1019.1
20260831140304 68 0 2.6 4.3 0.00 0.02 0.02 67 1019.2
20260831135804 67 0 0.0 6.1 0.00 0.02 0.02 68 1019.2
20260831135306 67 0 4.3 6.1 0.00 0.02 0.02 68 1019.2
20260831133803 68 0 0.0 6.1 0.00 0.02 0.02 68 1019.2
20260831132803 68 0 3.5 7.0 0.00 0.02 0.02 65 1019.2
20260831132306 69 0 4.3 7.0 0.00 0.02 0.02 65 1019.1
20260831131304 68 0 2.6 6.1 0.00 0.02 0.02 67 1019.1
20260831130803 68 0 1.7 7.8 0.00 0.02 0.02 67 1019.0
20260831130304 68 0 4.3 10.4 0.00 0.02 0.02 66 1019.1
20260831125306 68 0 4.3 8.7 0.00 0.02 0.02 68 1019.1
20260831124804 68 0 2.6 7.8 0.00 0.02 0.02 68 1019.1
20260831124304 68 0 3.5 7.0 0.00 0.02 0.02 69 1019.1
20260831123804 68 0 4.3 7.8 0.00 0.02 0.02 69 1019.2
20260831123304 68 0 3.5 7.8 0.00 0.02 0.02 70 1019.1
20260831122804 67 0 4.3 6.1 0.00 0.02 0.02 71 1019.0
20260831122305 67 0 2.6 7.0 0.00 0.02 0.02 72 1019.0
20260831121303 67 0 4.3 8.7 0.00 0.02 0.02 73 1018.9
20260831120803 67 0 4.3 7.8 0.00 0.02 0.02 73 1019.0
20260831120304 67 0 2.6 6.1 0.00 0.02 0.02 72 1019.0
20260831115306 67 0 1.7 7.0 0.00 0.02 0.02 73 1019.3
20260831114803 67 0 4.3 7.0 0.00 0.02 0.02 73 1019.1
20260831114303 67 0 1.7 8.7 0.00 0.02 0.02 71 1019.2
20260831113803 67 0 4.3 10.4 0.00 0.02 0.02 70 1019.3
20260831112804 68 0 4.3 10.4 0.00 0.02 0.02 71 1019.2
20260831111303 67 0 4.3 7.8 0.00 0.02 0.02 74 1019.1
20260831105306 66 0 7.0 12.2 0.00 0.02 0.02 78 1018.9
20260831104804 66 0 5.2 10.4 0.00 0.02 0.02 78 1018.9
20260831104303 66 0 4.3 10.4 0.00 0.02 0.02 78 1019.0
20260831103804 66 0 6.1 12.2 0.00 0.02 0.02 77 1018.9
20260831103303 67 0 4.3 13.0 0.00 0.02 0.02 77 1018.9
20260831102804 67 359 7.8 13.0 0.00 0.02 0.02 76 1018.8
20260831102306 67 0 6.1 11.3 0.00 0.02 0.02 77 1018.8
20260831101803 66 348 5.2 12.2 0.00 0.02 0.02 78 1018.8
20260831101303 66 0 7.0 12.2 0.00 0.02 0.02 77 1018.8
20260831100803 66 0 6.1 11.3 0.00 0.02 0.02 78 1018.7
20260831100309 67 0 7.0 11.3 0.00 0.02 0.02 77 1018.8
20260831095804 67 359 7.0 12.2 0.00 0.02 0.02 77 1018.7
20260831095306 67 336 6.1 12.2 0.00 0.02 0.02 76 1018.8
20260831093304 68 27 4.3 8.7 0.00 0.02 0.02 76 1018.6
20260831092803 67 23 3.5 10.4 0.00 0.02 0.02 77 1018.5
20260831092306 66 15 6.1 11.3 0.00 0.02 0.02 78 1018.5
20260831090803 66 0 4.3 10.4 0.00 0.02 0.02 78 1018.6
20260831085804 67 0 6.1 12.2 0.00 0.02 0.02 78 1018.7
20260831085306 67 347 7.0 12.2 0.00 0.02 0.02 76 1018.7
20260831084804 68 342 4.3 10.4 0.00 0.02 0.02 75 1018.7
20260831083303 69 333 7.0 10.4 0.00 0.02 0.02 72 1018.7
20260831082804 69 358 5.2 8.7 0.00 0.02 0.02 72 1018.6
20260831082306 69 334 1.7 7.0 0.00 0.02 0.02 73 1018.5
20260831080304 70 307 1.7 7.8 0.00 0.02 0.02 67 1018.3
20260831074804 70 251 4.3 7.8 0.00 0.02 0.02 68 1018.1
20260831074304 69 209 1.7 5.2 0.00 0.02 0.02 69 1018.2
20260831072803 68 130 1.7 2.6 0.00 0.02 0.02 73 1018.2
20260831072306 68 136 1.7 2.6 0.00 0.02 0.02 75 1018.3
20260831063803 63 144 0.9 2.6 0.00 0.02 0.02 88 1018.1
20260831063303 62 130 1.7 2.6 0.00 0.02 0.02 88 1018.1
20260831062305 62 198 0.9 2.6 0.00 0.02 0.02 89 1018.1
20260831061303 61 156 1.7 2.6 0.00 0.02 0.02 90 1018.0
20260831060303 60 200 1.7 5.2 0.00 0.02 0.02 91 1018.1
20260831055803 60 0 2.6 5.2 0.00 0.02 0.02 91 1018.1
20260831055306 60 0 0.9 2.6 0.00 0.02 0.02 92 1018.0
20260831054803 60 2 1.7 2.6 0.00 0.02 0.02 91 1018.0
20260831054303 60 116 0.9 2.6 0.00 0.02 0.02 91 1018.0
20260831053303 60 150 0.0 2.6 0.00 0.02 0.02 91 1018.1
20260831052803 60 142 0.9 2.6 0.00 0.02 0.02 91 1018.0
20260831052306 60 215 0.9 4.3 0.00 0.02 0.02 91 1018.0
20260831050803 60 0 1.7 4.3 0.00 0.02 0.02 91 1018.1
20260831050303 60 145 1.7 4.3 0.00 0.02 0.02 91 1017.9
20260831045803 60 262 1.7 4.3 0.00 0.02 0.02 90 1017.9
20260831045306 60 0 1.7 2.6 0.00 0.02 0.02 90 1018.0
20260831044803 60 337 0.9 2.6 0.00 0.02 0.02 90 1018.0
20260831043803 60 0 1.7 4.3 0.00 0.02 0.02 90 1017.9
20260831043303 60 151 1.7 4.3 0.00 0.02 0.02 90 1018.0
20260831042803 60 139 0.9 4.3 0.00 0.02 0.02 90 1018.0
20260831041804 60 3 0.9 2.6 0.00 0.02 0.02 89 1017.8
20260831041304 60 101 0.0 2.6 0.00 0.02 0.02 89 1017.8
20260831040803 60 98 0.0 2.6 0.00 0.02 0.02 90 1018.0
20260831040303 60 96 0.9 1.7 0.00 0.02 0.02 90 1017.9
20260831035306 60 34 0.0 1.7 0.00 0.02 0.02 90 1018.0
20260831034804 60 54 0.0 1.7 0.00 0.02 0.02 89 1018.0
20260831034304 60 5 0.9 2.6 0.00 0.02 0.02 89 1018.0
20260831033804 60 96 0.9 2.6 0.01 0.02 0.02 89 1018.0
20260831033304 61 43 1.7 2.6 0.01 0.02 0.02 89 1018.2
20260831032306 61 1 0.0 1.7 0.02 0.02 0.02 87 1018.1
20260831031804 61 0 0.9 2.6 0.02 0.02 0.02 87 1018.2
20260831030803 61 0 1.7 2.6 0.02 0.02 0.02 86 1018.2
20260831030304 62 182 1.7 4.3 0.02 0.02 0.02 85 1018.4
20260831025803 62 359 1.7 4.3 0.02 0.02 0.02 84 1018.4
20260831025306 62 355 1.7 7.8 0.02 0.02 0.02 83 1018.4
20260831024804 62 5 1.7 10.4 0.02 0.02 0.02 82 1018.4
20260831024304 63 136 3.5 10.4 0.02 0.02 0.02 81 1018.4
20260831023303 64 124 2.6 8.7 0.02 0.02 0.02 78 1018.7
20260831021803 63 0 1.7 13.9 0.01 0.01 0.01 79 1018.4
20260831020804 64 358 3.5 24.3 0.01 0.01 0.01 78 1018.2
20260831015803 65 0 8.7 20.9 0.01 0.01 0.01 76 1018.1
20260831015306 65 0 7.8 19.1 0.00 0.00 0.00 77 1018.1
20260831013303 61 0 1.7 2.6 0.00 0.00 0.00 87 1015.7
20260831012804 61 0 1.7 2.6 0.00 0.00 0.00 87 1015.8
20260831012306 62 0 0.9 2.6 0.00 0.00 0.00 87 1015.7
20260831011804 62 0 0.0 2.6 0.00 0.00 0.00 87 1015.8
20260831011304 62 0 0.0 1.7 0.00 0.00 0.00 87 1015.7
20260831010805 62 0 0.0 0.9 0.00 0.00 0.00 86 1015.7
20260831010303 62 0 0.0 2.6 0.00 0.00 0.00 86 1015.6
20260831005803 62 0 0.9 2.6 0.00 0.00 0.00 87 1015.6
20260831003304 63 0 1.7 4.3 0.00 0.00 0.00 85 1015.5
20260831002804 63 0 1.7 4.3 0.00 0.00 0.00 84 1015.5
20260831001304 63 8 1.7 2.6 0.00 0.00 0.00 83 1015.8
20260831000804 64 0 0.9 2.6 0.00 0.00 0.00 84 1016.0
20260831000303 63 0 0.9 2.6 0.00 0.00 0.00 83 1016.1
20260830235803 63 0 0.0 2.6 0.00 0.00 0.00 82 1016.1
20260830235305 63 0 2.6 2.6 0.00 0.00 0.00 83 1016.2
20260830234803 63 0 0.9 2.6 0.00 0.00 0.00 84 1016.2
20260830234304 63 0 1.7 2.6 0.00 0.00 0.00 85 1016.3
20260830233304 63 0 0.9 2.6 0.00 0.00 0.00 83 1016.3
20260830232804 64 0 0.9 1.7 0.00 0.00 0.00 83 1016.2
20260830232305 64 0 0.0 0.0 0.00 0.00 0.00 83 1015.9
20260830231804 64 0 0.0 0.0 0.00 0.00 0.00 83 1016.0
20260830230303 64 0 0.0 0.0 0.00 0.00 0.00 83 1016.1
20260830223303 65 0 0.0 0.0 0.00 0.00 0.00 81 1016.1
20260830222803 65 0 0.0 0.0 0.00 0.00 0.00 81 1016.2
20260830222306 66 0 0.0 0.9 0.00 0.00 0.00 81 1016.2
20260830221303 66 0 0.0 2.6 0.00 0.00 0.00 80 1016.1
20260830220803 66 0 1.7 2.6 0.00 0.00 0.00 80 1016.2
20260830212804 66 0 0.9 4.3 0.00 0.00 0.00 80 1016.2
20260830211803 66 0 0.0 0.0 0.00 0.00 0.00 82 1017.0
20260830211303 66 0 0.0 0.0 0.00 0.00 0.00 82 1017.0
20260830210803 66 0 0.0 0.0 0.00 0.00 0.00 82 1017.0
20260830205803 66 0 0.0 2.6 0.00 0.00 0.00 82 1017.1
20260830203803 66 0 1.7 2.6 0.00 0.00 0.00 82 1016.9
20260830202305 67 0 0.9 2.6 0.00 0.00 0.00 80 1016.9
20260830201804 67 0 0.9 2.6 0.00 0.00 0.00 80 1016.8
20260830200804 67 0 2.6 2.6 0.00 0.00 0.00 79 1016.8